Content
SEND FEEDBACK

Daily
Averages
Monthly
Summary
United States of America

BROOKLYN, NEW YORK


Home > North America > United States > New York
Elevation: 2 feet     Latitude: 40 36N     Longitude: 073 59W

WEATHER
 
SELECT A DAY
Number of Records: 189,646;   Date Range: 1/1/95 - 12/16/14
 
SHARE

PRINT THIS DATA

[ ← Previous Day ]
WEATHER ALMANAC - FEBRUARY 19, 2013
[ Next Day → ]
[ °C ]   °F
Weather ElementAverageHighLow
Temperature40.5 °F45 °F (11:51 am)30.9 °F (2:51 am)
Dewpoint33.4 °F41 °F (4:51 pm)16 °F (1:51 am)
Humidity76.7 %96 % (7:51 pm)52 % (1:51 am)
Barometer29.89 in30.21 in (1:51 am)29.69 in (7:48 pm)
Wind Speed15.4 mph21.9 mph (10:51 am)
Wind Gust31.1 mph (11:51 pm)
Weather ElementAverage
Visibility9.5 mi
Wind DirectionSSW (214.8 °)

Weather ElementTotal
Precipitation0.16 in
Heating Degree Days27.1 (Base 65)
Averaged from 27 records on February 19, 2013
WEATHER CONDITIONS BREAKOUT
WIND DIRECTION BREAKOUT
WEATHER BY HOUR - FEBRUARY 19, 2013
[ °C ]   °F
Local TimeTemperatureDewpointHumidityBarometerVisibilityWind DirectionWind SpeedGust SpeedPrecipitationEventsConditions
1:51 AM32.0 °F16.0 °F52 %30.21 in10.0 miSSW (210°)10.4 mphMostly Cloudy
2:51 AM30.9 °F18.0 °F59 %30.17 in10.0 miSSW (210°)10.4 mphScattered Clouds
3:51 AM35.1 °F23.0 °F61 %30.15 in10.0 miSSW (210°)11.5 mphScattered Clouds
4:51 AM30.9 °F23.0 °F72 %30.15 in10.0 miSW (230°)8.1 mphScattered Clouds
5:51 AM34.0 °F27.0 °F75 %30.11 in10.0 miSSW (210°)9.2 mphPartly Cloudy
6:51 AM36.0 °F27.0 °F70 %30.09 in10.0 miSSW (210°)11.5 mphPartly Cloudy
7:51 AM39.9 °F30.9 °F70 %30.09 in10.0 miSouth (190°)13.8 mphMostly Cloudy
8:51 AM41.0 °F30.9 °F67 %30.07 in10.0 miSouth (190°)15.0 mphMostly Cloudy
9:51 AM42.1 °F32.0 °F67 %30.04 in10.0 miSouth (180°)16.1 mphMostly Cloudy
10:51 AM44.1 °F33.1 °F65 %30.01 in10.0 miSouth (170°)21.9 mph26.5 mphMostly Cloudy
11:51 AM45.0 °F35.1 °F68 %29.98 in10.0 miSouth (180°)20.7 mph27.6 mphOvercast
12:51 PM44.6 °F35.6 °F71 %29.95 in10.0 miSouth (190°)21.9 mph29.9 mphRainLight Rain
1:51 PM42.1 °F37.9 °F85 %29.89 in10.0 miSouth (180°)13.8 mph0.02 inRainLight Rain
2:51 PM42.1 °F39.0 °F89 %29.86 in9.0 miSouth (180°)20.7 mph0.01 inRainLight Rain
3:51 PM42.1 °F39.9 °F92 %29.78 in8.0 miSouth (170°)17.3 mph0.03 inRainLight Rain
4:51 PM43.0 °F41.0 °F93 %29.75 in8.0 miSouth (190°)21.9 mph29.9 mph0.01 inRainLight Rain
5:38 PM42.8 °F41.0 °F93 %29.74 in7.0 miSSW (200°)19.6 mph0.02 inRainLight Rain
5:51 PM42.1 °F39.9 °F92 %29.74 in7.0 miSSW (200°)17.3 mph0.02 inRainLight Rain
6:16 PM42.8 °F39.2 °F87 %29.73 in7.0 miSSW (210°)9.2 mph0.01 inRainLight Rain
7:48 PM42.8 °F41.0 °F93 %29.69 in10.0 miWSW (240°)8.1 mph0.02 inMostly Cloudy
7:51 PM42.1 °F41.0 °F96 %29.69 in10.0 miWSW (240°)10.4 mph0.02 inMostly Cloudy
8:13 PM42.8 °F41.0 °F93 %29.70 in10.0 miWSW (250°)11.5 mphOvercast
8:51 PM44.1 °F41.0 °F89 %29.69 in10.0 miWest (260°)18.4 mph27.6 mph0.00 inRainLight Rain
9:51 PM44.1 °F37.9 °F79 %29.70 in10.0 miWest (270°)20.7 mph26.5 mph0.00 inOvercast
10:23 PM42.8 °F33.8 °F70 %29.71 in10.0 miWest (280°)15.0 mph25.3 mphOvercast
10:51 PM42.1 °F30.0 °F62 %29.72 in10.0 miWest (270°)19.6 mph27.6 mphMostly Cloudy
11:51 PM39.0 °F26.1 °F60 %29.73 in10.0 miWest (280°)21.9 mph31.1 mphScattered Clouds
Hourly data recorded from KJFK, located miles away from Brooklyn, New York







STORIES FROM OUR PARTNERS